Location: Dreilärchen
(47.9312°N, 8.6113°E)
Time: 19:51:41
(UTC+00:00)

Cosmos 2333 Rocket - Pass Details

Date: 26 May 2022
Orbit: 839 x 863 km, 70.8° (Epoch: 02 July)

Event Time Altitude Azimuth Distance (km) Brightness Sun altitude
Exits shadow 00:19:42 14° 253° (WSW) 2,168 4.0 -19.8°
Maximum altitude 00:23:49 32° 311° (NW) 1,407 3.6 -19.6°
Drops below altitude 10° 00:28:53 10° 14° (NNE) 2,479 5.9 -19.4°
Sets 00:31:37 0° 24° (NNE) 3,422 7.0 -19.3°
